Location: Wiesbaden
(50.0830°N, 8.2500°E)
Time: 19:58:10
(UTC+02:00)

ISS - Pass Details

Date: 14 July 2019
Orbit: 409 x 418 km, 51.6° (Epoch: 20 July)

Event Time Altitude Azimuth Distance (km) Brightness Sun altitude
Rises 04:45:07 0° 286° (WNW) 2,347 -0.2 -6.6°
Reaches altitude 10° 04:47:13 10° 285° (WNW) 1,482 -1.3 -6.3°
Maximum altitude 04:50:32 74° 200° (SSW) 430 -3.8 -6.0°
Drops below altitude 10° 04:53:49 10° 115° (ESE) 1,474 -0.7 -5.6°
Sets 04:55:54 0° 114° (ESE) 2,332 0.3 -5.3°
